View from above orbital plane
|
View from above satellite
|
Ground track
|
The orbit data is extracted from the following two-line orbital elements,
1 44909U 19096E 22178.51068118 .00000039 00000-0 11940-3 0 9991
2 44909 82.5208 223.5941 0216273 296.3735 61.5307 12.79713641116792
Epoch (UTC): | 27 June 2022 12:15:22 |
Eccentricity: | 0.0216273 |
inclination: | 82.5208° |
perigee height: | 1175 km |
apogee height: | 1509 km |
right ascension of ascending node: | 223.5941° |
argument of perigee: | 296.3735° |
revolutions per day: | 12.79713641 |
mean anomaly at epoch: | 61.5307° |
orbit number at epoch: | 11679 |
The dashed part of the orbit path shows where the satellite is in the earth's shadow,
|
|